Year,Month,Day,Hour,Minute,Value (Times are PST for temperature in C)
2013,05,04,00,00,13.80
2013,05,04,00,01,13.70
2013,05,04,00,02,13.60
2013,05,04,00,03,13.50
2013,05,04,00,04,13.30
2013,05,04,00,05,13.20
2013,05,04,00,06,13.10
2013,05,04,00,07,13.00
2013,05,04,00,08,12.90
2013,05,04,00,09,12.80
2013,05,04,00,10,12.70
2013,05,04,00,11,12.60
2013,05,04,00,12,12.60
2013,05,04,00,13,12.50
2013,05,04,00,14,12.40
2013,05,04,00,15,12.30
2013,05,04,00,16,12.20
2013,05,04,00,17,12.20
2013,05,04,00,18,12.10
2013,05,04,00,19,12.10
2013,05,04,00,20,12.10
2013,05,04,00,21,12.10
2013,05,04,00,22,12.20
2013,05,04,00,23,12.20
2013,05,04,00,24,12.20
2013,05,04,00,25,12.20
2013,05,04,00,26,12.20
2013,05,04,00,27,12.20
2013,05,04,00,28,12.10
2013,05,04,00,29,12.10
2013,05,04,00,30,12.10
2013,05,04,00,31,12.10
2013,05,04,00,32,12.00
2013,05,04,00,33,11.90
2013,05,04,00,34,11.90
2013,05,04,00,35,11.80
2013,05,04,00,36,11.80
2013,05,04,00,37,11.80
2013,05,04,00,38,11.70
2013,05,04,00,39,11.70
2013,05,04,00,40,11.70
2013,05,04,00,41,11.70
2013,05,04,00,42,11.70
2013,05,04,00,43,11.80
2013,05,04,00,44,11.80
2013,05,04,00,45,11.80
2013,05,04,00,46,11.90
2013,05,04,00,47,12.00
2013,05,04,00,48,12.10
2013,05,04,00,49,12.20
2013,05,04,00,50,12.30
2013,05,04,00,51,12.40
2013,05,04,00,52,12.60
2013,05,04,00,53,12.80
2013,05,04,00,54,12.90
2013,05,04,00,55,13.10
2013,05,04,00,56,13.20
2013,05,04,00,57,13.30
2013,05,04,00,58,13.40
2013,05,04,00,59,13.40
2013,05,04,01,00,13.40
2013,05,04,01,01,13.40
2013,05,04,01,02,13.40
2013,05,04,01,03,13.40
2013,05,04,01,04,13.40
2013,05,04,01,05,13.40
2013,05,04,01,06,13.50
2013,05,04,01,07,13.50
2013,05,04,01,08,13.60
2013,05,04,01,09,13.60
2013,05,04,01,10,13.60
2013,05,04,01,11,13.50
2013,05,04,01,12,13.50
2013,05,04,01,13,13.50
2013,05,04,01,14,13.40
2013,05,04,01,15,13.30
2013,05,04,01,16,13.30
2013,05,04,01,17,13.30
2013,05,04,01,18,13.30
2013,05,04,01,19,13.30
2013,05,04,01,20,13.30
2013,05,04,01,21,13.30
2013,05,04,01,22,13.30
2013,05,04,01,23,13.40
2013,05,04,01,24,13.40
2013,05,04,01,25,13.40
2013,05,04,01,26,13.40
2013,05,04,01,27,13.30
2013,05,04,01,28,13.30
2013,05,04,01,29,13.30
2013,05,04,01,30,13.30
2013,05,04,01,31,13.20
2013,05,04,01,32,13.10
2013,05,04,01,33,13.10
2013,05,04,01,34,13.00
2013,05,04,01,35,12.90
2013,05,04,01,36,12.80
2013,05,04,01,37,12.70
2013,05,04,01,38,12.60
2013,05,04,01,39,12.50
2013,05,04,01,40,12.40
2013,05,04,01,41,12.40
2013,05,04,01,42,12.30
2013,05,04,01,43,12.20
2013,05,04,01,44,12.20
2013,05,04,01,45,12.10
2013,05,04,01,46,12.10
2013,05,04,01,47,12.00
2013,05,04,01,48,11.90
2013,05,04,01,49,11.80
2013,05,04,01,50,11.80
2013,05,04,01,51,11.70
2013,05,04,01,52,11.60
2013,05,04,01,53,11.60
2013,05,04,01,54,11.50
2013,05,04,01,55,11.40
2013,05,04,01,56,11.30
2013,05,04,01,57,11.30
2013,05,04,01,58,11.20
2013,05,04,01,59,11.10
2013,05,04,02,00,11.10
2013,05,04,02,01,11.10
2013,05,04,02,02,11.00
2013,05,04,02,03,11.00
2013,05,04,02,04,10.90
2013,05,04,02,05,10.90
2013,05,04,02,06,10.90
2013,05,04,02,07,10.90
2013,05,04,02,08,10.90
2013,05,04,02,09,10.90
2013,05,04,02,10,10.90
2013,05,04,02,11,10.90
2013,05,04,02,12,10.80
2013,05,04,02,13,10.80
2013,05,04,02,14,10.80
2013,05,04,02,15,10.70
2013,05,04,02,16,10.70
2013,05,04,02,17,10.70
2013,05,04,02,18,10.60
2013,05,04,02,19,10.60
2013,05,04,02,20,10.60
2013,05,04,02,21,10.50
2013,05,04,02,22,10.50
2013,05,04,02,23,10.50
2013,05,04,02,24,10.50
2013,05,04,02,25,10.40
2013,05,04,02,26,10.40
2013,05,04,02,27,10.40
2013,05,04,02,28,10.40
2013,05,04,02,29,10.40
2013,05,04,02,30,10.40
2013,05,04,02,31,10.30
2013,05,04,02,32,10.30
2013,05,04,02,33,10.30
2013,05,04,02,34,10.30
2013,05,04,02,35,10.30
2013,05,04,02,36,10.30
2013,05,04,02,37,10.20
2013,05,04,02,38,10.30
2013,05,04,02,39,10.20
2013,05,04,02,40,10.20
2013,05,04,02,41,10.20
2013,05,04,02,42,10.30
2013,05,04,02,43,10.30
2013,05,04,02,44,10.30
2013,05,04,02,45,10.30
2013,05,04,02,46,10.30
2013,05,04,02,47,10.30
2013,05,04,02,48,10.30
2013,05,04,02,49,10.40
2013,05,04,02,50,10.40
2013,05,04,02,51,10.40
2013,05,04,02,52,10.40
2013,05,04,02,53,10.40
2013,05,04,02,54,10.40
2013,05,04,02,55,10.40
2013,05,04,02,56,10.40
2013,05,04,02,57,10.40
2013,05,04,02,58,10.40
2013,05,04,02,59,10.40
2013,05,04,03,00,10.40
2013,05,04,03,01,10.30
2013,05,04,03,02,10.30
2013,05,04,03,03,10.30
2013,05,04,03,04,10.30
2013,05,04,03,05,10.30
2013,05,04,03,06,10.30
2013,05,04,03,07,10.20
2013,05,04,03,08,10.20
2013,05,04,03,09,10.20
2013,05,04,03,10,10.20
2013,05,04,03,11,10.20
2013,05,04,03,12,10.10
2013,05,04,03,13,10.10
2013,05,04,03,14,10.10
2013,05,04,03,15,10.00
2013,05,04,03,16,10.00
2013,05,04,03,17,10.00
2013,05,04,03,18,9.90
2013,05,04,03,19,9.90
2013,05,04,03,20,9.90
2013,05,04,03,21,9.90
2013,05,04,03,22,9.80
2013,05,04,03,23,9.80
2013,05,04,03,24,9.80
2013,05,04,03,25,9.70
2013,05,04,03,26,9.70
2013,05,04,03,27,9.70
2013,05,04,03,28,9.60
2013,05,04,03,29,9.60
2013,05,04,03,30,9.50
2013,05,04,03,31,9.50
2013,05,04,03,32,9.50
2013,05,04,03,33,9.40
2013,05,04,03,34,9.40
2013,05,04,03,35,9.30
2013,05,04,03,36,9.30
2013,05,04,03,37,9.30
2013,05,04,03,38,9.30
2013,05,04,03,39,9.30
2013,05,04,03,40,9.30
2013,05,04,03,41,9.40
2013,05,04,03,42,9.60
2013,05,04,03,43,9.80
2013,05,04,03,44,10.00
2013,05,04,03,45,10.20
2013,05,04,03,46,10.30
2013,05,04,03,47,10.40
2013,05,04,03,48,10.60
2013,05,04,03,49,10.70
2013,05,04,03,50,10.80
2013,05,04,03,51,10.90
2013,05,04,03,52,11.00
2013,05,04,03,53,11.10
2013,05,04,03,54,11.20
2013,05,04,03,55,11.30
2013,05,04,03,56,11.30
2013,05,04,03,57,11.30
2013,05,04,03,58,11.40
2013,05,04,03,59,11.40
2013,05,04,04,00,11.40
2013,05,04,04,01,11.40
2013,05,04,04,02,11.30
2013,05,04,04,03,11.30
2013,05,04,04,04,11.30
2013,05,04,04,05,11.30
2013,05,04,04,06,11.30
2013,05,04,04,07,11.20
2013,05,04,04,08,11.20
2013,05,04,04,09,11.20
2013,05,04,04,10,11.10
2013,05,04,04,11,11.10
2013,05,04,04,12,11.00
2013,05,04,04,13,10.90
2013,05,04,04,14,10.80
2013,05,04,04,15,10.80
2013,05,04,04,16,10.70
2013,05,04,04,17,10.70
2013,05,04,04,18,10.60
2013,05,04,04,19,10.50
2013,05,04,04,20,10.40
2013,05,04,04,21,10.40
2013,05,04,04,22,10.30
2013,05,04,04,23,10.20
2013,05,04,04,24,10.20
2013,05,04,04,25,10.10
2013,05,04,04,26,10.10
2013,05,04,04,27,10.00
2013,05,04,04,28,10.00
2013,05,04,04,29,9.90
2013,05,04,04,30,9.90
2013,05,04,04,31,9.80
2013,05,04,04,32,9.80
2013,05,04,04,33,9.80
2013,05,04,04,34,9.70
2013,05,04,04,35,9.70
2013,05,04,04,36,9.60
2013,05,04,04,37,9.50
2013,05,04,04,38,9.50
2013,05,04,04,39,9.40
2013,05,04,04,40,9.40
2013,05,04,04,41,9.30
2013,05,04,04,42,9.20
2013,05,04,04,43,9.20
2013,05,04,04,44,9.20
2013,05,04,04,45,9.10
2013,05,04,04,46,9.10
2013,05,04,04,47,9.00
2013,05,04,04,48,9.00
2013,05,04,04,49,8.90
2013,05,04,04,50,8.90
2013,05,04,04,51,8.90
2013,05,04,04,52,8.80
2013,05,04,04,53,8.80
2013,05,04,04,54,8.70
2013,05,04,04,55,8.70
2013,05,04,04,56,8.70
2013,05,04,04,57,8.60
2013,05,04,04,58,8.60
2013,05,04,04,59,8.50
2013,05,04,05,00,8.50
2013,05,04,05,01,8.40
2013,05,04,05,02,8.40
2013,05,04,05,03,8.40
2013,05,04,05,04,8.30
2013,05,04,05,05,8.30
2013,05,04,05,06,8.30
2013,05,04,05,07,8.20
2013,05,04,05,08,8.20
2013,05,04,05,09,8.10
2013,05,04,05,10,8.10
2013,05,04,05,11,8.10
2013,05,04,05,12,8.00
2013,05,04,05,13,8.00
2013,05,04,05,14,7.90
2013,05,04,05,15,7.90
2013,05,04,05,16,7.90
2013,05,04,05,17,7.90
2013,05,04,05,18,7.80
2013,05,04,05,19,7.80
2013,05,04,05,20,7.80
2013,05,04,05,21,7.80
2013,05,04,05,22,7.80
2013,05,04,05,23,7.80
2013,05,04,05,24,7.80
2013,05,04,05,25,7.80
2013,05,04,05,26,7.80
2013,05,04,05,27,7.80
2013,05,04,05,28,7.80
2013,05,04,05,29,7.80
2013,05,04,05,30,7.80
2013,05,04,05,31,7.80
2013,05,04,05,32,7.80
2013,05,04,05,33,7.80
2013,05,04,05,34,7.80
2013,05,04,05,35,7.80
2013,05,04,05,36,7.80
2013,05,04,05,37,7.80
2013,05,04,05,38,7.80
2013,05,04,05,39,7.80
2013,05,04,05,40,7.80
2013,05,04,05,41,7.70
2013,05,04,05,42,7.70
2013,05,04,05,43,7.70
2013,05,04,05,44,7.70
2013,05,04,05,45,7.70
2013,05,04,05,46,7.70
2013,05,04,05,47,7.70
2013,05,04,05,48,7.60
2013,05,04,05,49,7.60
2013,05,04,05,50,7.60
2013,05,04,05,51,7.60
2013,05,04,05,52,7.60
2013,05,04,05,53,7.50
2013,05,04,05,54,7.50
2013,05,04,05,55,7.50
2013,05,04,05,56,7.40
2013,05,04,05,57,7.40
2013,05,04,05,58,7.40
2013,05,04,05,59,7.40
2013,05,04,06,00,7.30
2013,05,04,06,01,7.30
2013,05,04,06,02,7.30
2013,05,04,06,03,7.30
2013,05,04,06,04,7.20
2013,05,04,06,05,7.20
2013,05,04,06,06,7.20
2013,05,04,06,07,7.20
2013,05,04,06,08,7.20
2013,05,04,06,09,7.20
2013,05,04,06,10,7.20
2013,05,04,06,11,7.30
2013,05,04,06,12,7.30
2013,05,04,06,13,7.40
2013,05,04,06,14,7.50
2013,05,04,06,15,7.70
2013,05,04,06,16,7.80
2013,05,04,06,17,7.90
2013,05,04,06,18,7.90
2013,05,04,06,19,8.00
2013,05,04,06,20,8.10
2013,05,04,06,21,8.10
2013,05,04,06,22,8.20
2013,05,04,06,23,8.20
2013,05,04,06,24,8.30
2013,05,04,06,25,8.30
2013,05,04,06,26,8.30
2013,05,04,06,27,8.40
2013,05,04,06,28,8.40
2013,05,04,06,29,8.40
2013,05,04,06,30,8.40
2013,05,04,06,31,8.50
2013,05,04,06,32,8.50
2013,05,04,06,33,8.50
2013,05,04,06,34,8.60
2013,05,04,06,35,8.60
2013,05,04,06,36,8.60
2013,05,04,06,37,8.70
2013,05,04,06,38,8.70
2013,05,04,06,39,8.70
2013,05,04,06,40,8.70
2013,05,04,06,41,8.80
2013,05,04,06,42,8.80
2013,05,04,06,43,8.80
2013,05,04,06,44,8.80
2013,05,04,06,45,8.80
2013,05,04,06,46,8.80
2013,05,04,06,47,8.70
2013,05,04,06,48,8.70
2013,05,04,06,49,8.70
2013,05,04,06,50,8.70
2013,05,04,06,51,8.70
2013,05,04,06,52,8.70
2013,05,04,06,53,8.70
2013,05,04,06,54,8.70
2013,05,04,06,55,8.70
2013,05,04,06,56,8.70
2013,05,04,06,57,8.70
2013,05,04,06,58,8.70
2013,05,04,06,59,8.70
2013,05,04,07,00,8.70
2013,05,04,07,01,8.70
2013,05,04,07,02,8.80
2013,05,04,07,03,8.80
2013,05,04,07,04,8.80
2013,05,04,07,05,8.80
2013,05,04,07,06,8.80
2013,05,04,07,07,8.80
2013,05,04,07,08,8.80
2013,05,04,07,09,8.80
2013,05,04,07,10,8.80
2013,05,04,07,11,8.80
2013,05,04,07,12,8.90
2013,05,04,07,13,8.90
2013,05,04,07,14,8.90
2013,05,04,07,15,8.90
2013,05,04,07,16,8.90
2013,05,04,07,17,8.90
2013,05,04,07,18,8.90
2013,05,04,07,19,8.90
2013,05,04,07,20,9.00
2013,05,04,07,21,9.10
2013,05,04,07,22,9.10
2013,05,04,07,23,9.10
2013,05,04,07,24,9.10
2013,05,04,07,25,9.20
2013,05,04,07,26,9.20
2013,05,04,07,27,9.20
2013,05,04,07,28,9.20
2013,05,04,07,29,9.30
2013,05,04,07,30,9.30
2013,05,04,07,31,9.30
2013,05,04,07,32,9.30
2013,05,04,07,33,9.40
2013,05,04,07,34,9.40
2013,05,04,07,35,9.50
2013,05,04,07,36,9.60
2013,05,04,07,37,9.70
2013,05,04,07,38,9.70
2013,05,04,07,39,9.80
2013,05,04,07,40,9.80
2013,05,04,07,41,9.90
2013,05,04,07,42,9.90
2013,05,04,07,43,10.00
2013,05,04,07,44,10.10
2013,05,04,07,45,10.20
2013,05,04,07,46,10.30
2013,05,04,07,47,10.30
2013,05,04,07,48,10.50
2013,05,04,07,49,10.60
2013,05,04,07,50,10.70
2013,05,04,07,51,10.80
2013,05,04,07,52,10.90
2013,05,04,07,53,11.00
2013,05,04,07,54,11.20
2013,05,04,07,55,11.40
2013,05,04,07,56,11.60
2013,05,04,07,57,11.80
2013,05,04,07,58,11.80
2013,05,04,07,59,11.90
2013,05,04,08,00,12.10
2013,05,04,08,01,12.20
2013,05,04,08,02,12.20
2013,05,04,08,03,12.30
2013,05,04,08,04,12.40
2013,05,04,08,05,12.50
2013,05,04,08,06,12.60
2013,05,04,08,07,12.60
2013,05,04,08,08,12.60
2013,05,04,08,09,12.60
2013,05,04,08,10,12.70
2013,05,04,08,11,12.70
2013,05,04,08,12,12.70
2013,05,04,08,13,12.70
2013,05,04,08,14,12.80
2013,05,04,08,15,12.80
2013,05,04,08,16,12.80
2013,05,04,08,17,12.80
2013,05,04,08,18,12.90
2013,05,04,08,19,12.90
2013,05,04,08,20,12.90
2013,05,04,08,21,13.00
2013,05,04,08,22,13.00
2013,05,04,08,23,13.10
2013,05,04,08,24,13.10
2013,05,04,08,25,13.20
2013,05,04,08,26,13.20
2013,05,04,08,27,13.20
2013,05,04,08,28,13.30
2013,05,04,08,29,13.30
2013,05,04,08,30,13.30
2013,05,04,08,31,13.30
2013,05,04,08,32,13.40
2013,05,04,08,33,13.50
2013,05,04,08,34,13.50
2013,05,04,08,35,13.50
2013,05,04,08,36,13.60
2013,05,04,08,37,13.60
2013,05,04,08,38,13.60
2013,05,04,08,39,13.70
2013,05,04,08,40,13.70
2013,05,04,08,41,13.70
2013,05,04,08,42,13.70
2013,05,04,08,43,13.70
2013,05,04,08,44,13.70
2013,05,04,08,45,13.80
2013,05,04,08,46,13.80
2013,05,04,08,47,13.80
2013,05,04,08,48,13.70
2013,05,04,08,49,13.70
2013,05,04,08,50,13.70
2013,05,04,08,51,13.70
2013,05,04,08,52,13.70
2013,05,04,08,53,13.60
2013,05,04,08,54,13.60
2013,05,04,08,55,13.60
2013,05,04,08,56,13.60
2013,05,04,08,57,13.60
2013,05,04,08,58,13.60
2013,05,04,08,59,13.60
2013,05,04,09,00,13.60
2013,05,04,09,01,13.60
2013,05,04,09,02,13.60
2013,05,04,09,03,13.60
2013,05,04,09,04,13.50
2013,05,04,09,05,13.50
2013,05,04,09,06,13.50
2013,05,04,09,07,13.50
2013,05,04,09,08,13.50
2013,05,04,09,09,13.50
2013,05,04,09,10,13.50
2013,05,04,09,11,13.50
2013,05,04,09,12,13.50
2013,05,04,09,13,13.60
2013,05,04,09,14,13.50
2013,05,04,09,15,13.50
2013,05,04,09,16,13.50
2013,05,04,09,17,13.40
2013,05,04,09,18,13.40
2013,05,04,09,19,13.40
2013,05,04,09,20,13.40
2013,05,04,09,21,13.30
2013,05,04,09,22,13.30
2013,05,04,09,23,13.20
2013,05,04,09,24,13.20
2013,05,04,09,25,13.10
2013,05,04,09,26,13.10
2013,05,04,09,27,13.20
2013,05,04,09,28,13.20
2013,05,04,09,29,13.20
2013,05,04,09,30,13.30
2013,05,04,09,31,13.30
2013,05,04,09,32,13.30
2013,05,04,09,33,13.40
2013,05,04,09,34,13.40
2013,05,04,09,35,13.50
2013,05,04,09,36,13.50
2013,05,04,09,37,13.60
2013,05,04,09,38,13.60
2013,05,04,09,39,13.70
2013,05,04,09,40,13.80
2013,05,04,09,41,13.80
2013,05,04,09,42,13.80
2013,05,04,09,43,13.90
2013,05,04,09,44,14.00
2013,05,04,09,45,14.00
2013,05,04,09,46,14.00
2013,05,04,09,47,14.00
2013,05,04,09,48,14.00
2013,05,04,09,49,14.00
2013,05,04,09,50,14.00
2013,05,04,09,51,14.00
2013,05,04,09,52,14.00
2013,05,04,09,53,14.00
2013,05,04,09,54,13.90
2013,05,04,09,55,13.90
2013,05,04,09,56,13.90
2013,05,04,09,57,13.80
2013,05,04,09,58,13.80
2013,05,04,09,59,13.80
2013,05,04,10,00,13.90
2013,05,04,10,01,13.90
2013,05,04,10,02,13.80
2013,05,04,10,03,13.80
2013,05,04,10,04,13.80
2013,05,04,10,05,13.80
2013,05,04,10,06,13.80
2013,05,04,10,07,13.80
2013,05,04,10,08,13.80
2013,05,04,10,09,13.80
2013,05,04,10,10,13.80
2013,05,04,10,11,13.80
2013,05,04,10,12,13.80
2013,05,04,10,13,13.70
2013,05,04,10,14,13.70
2013,05,04,10,15,13.70
2013,05,04,10,16,13.70
2013,05,04,10,17,13.60
2013,05,04,10,18,13.60
2013,05,04,10,19,13.50
2013,05,04,10,20,13.40
2013,05,04,10,21,13.40
2013,05,04,10,22,13.40
2013,05,04,10,23,13.50
2013,05,04,10,24,13.50
2013,05,04,10,25,13.60
2013,05,04,10,26,13.70
2013,05,04,10,27,13.70
2013,05,04,10,28,13.70
2013,05,04,10,29,13.80
2013,05,04,10,30,13.80
2013,05,04,10,31,13.70
2013,05,04,10,32,13.70
2013,05,04,10,33,13.60
2013,05,04,10,34,13.50
2013,05,04,10,35,13.50
2013,05,04,10,36,13.50
2013,05,04,10,37,13.40
2013,05,04,10,38,13.40
2013,05,04,10,39,13.40
2013,05,04,10,40,13.30
2013,05,04,10,41,13.30
2013,05,04,10,42,13.30
2013,05,04,10,43,13.30
2013,05,04,10,44,13.30
2013,05,04,10,45,13.30
2013,05,04,10,46,13.30
2013,05,04,10,47,13.30
2013,05,04,10,48,13.30
2013,05,04,10,49,13.40
2013,05,04,10,50,13.40
2013,05,04,10,51,13.40
2013,05,04,10,52,13.50
2013,05,04,10,53,13.50
2013,05,04,10,54,13.50
2013,05,04,10,55,13.50
2013,05,04,10,56,13.40
2013,05,04,10,57,13.40
2013,05,04,10,58,13.40
2013,05,04,10,59,13.40
2013,05,04,11,00,13.50
2013,05,04,11,01,13.50
2013,05,04,11,02,13.50
2013,05,04,11,03,13.50
2013,05,04,11,04,13.50
2013,05,04,11,05,13.60
2013,05,04,11,06,13.70
2013,05,04,11,07,13.80
2013,05,04,11,08,13.90
2013,05,04,11,09,14.10
2013,05,04,11,10,14.20
2013,05,04,11,11,14.30
2013,05,04,11,12,14.40
2013,05,04,11,13,14.50
2013,05,04,11,14,14.50
2013,05,04,11,15,14.50
2013,05,04,11,16,14.50
2013,05,04,11,17,14.40
2013,05,04,11,18,14.40
2013,05,04,11,19,14.40
2013,05,04,11,20,14.40
2013,05,04,11,21,14.40
2013,05,04,11,22,14.40
2013,05,04,11,23,14.40
2013,05,04,11,24,14.50
2013,05,04,11,25,14.50
2013,05,04,11,26,14.60
2013,05,04,11,27,14.60
2013,05,04,11,28,14.60
2013,05,04,11,29,14.60
2013,05,04,11,30,14.60
2013,05,04,11,31,14.70
2013,05,04,11,32,14.70
2013,05,04,11,33,14.70
2013,05,04,11,34,14.80
2013,05,04,11,35,14.80
2013,05,04,11,36,14.80
2013,05,04,11,37,14.80
2013,05,04,11,38,14.80
2013,05,04,11,39,14.80
2013,05,04,11,40,14.80
2013,05,04,11,41,14.80
2013,05,04,11,42,14.80
2013,05,04,11,43,14.80
2013,05,04,11,44,14.80
2013,05,04,11,45,14.80
2013,05,04,11,46,14.90
2013,05,04,11,47,14.80
2013,05,04,11,48,14.80
2013,05,04,11,49,14.80
2013,05,04,11,50,14.80
2013,05,04,11,51,14.80
2013,05,04,11,52,14.80
2013,05,04,11,53,14.80
2013,05,04,11,54,14.80
2013,05,04,11,55,14.90
2013,05,04,11,56,14.90
2013,05,04,11,57,14.90
2013,05,04,11,58,14.90
2013,05,04,11,59,14.90
2013,05,04,12,00,14.90
2013,05,04,12,01,15.00
2013,05,04,12,02,15.00
2013,05,04,12,03,15.00
2013,05,04,12,04,15.10
2013,05,04,12,05,15.10
2013,05,04,12,06,15.20
2013,05,04,12,07,15.20
2013,05,04,12,08,15.20
2013,05,04,12,09,15.20
2013,05,04,12,10,15.30
2013,05,04,12,11,15.40
2013,05,04,12,12,15.40
2013,05,04,12,13,15.50
2013,05,04,12,14,15.50
2013,05,04,12,15,15.40
2013,05,04,12,16,15.40
2013,05,04,12,17,15.50
2013,05,04,12,18,15.60
2013,05,04,12,19,15.70
2013,05,04,12,20,15.70
2013,05,04,12,21,15.80
2013,05,04,12,22,15.90
2013,05,04,12,23,16.00
2013,05,04,12,24,16.00
2013,05,04,12,25,16.10
2013,05,04,12,26,16.10
2013,05,04,12,27,16.20
2013,05,04,12,28,16.30
2013,05,04,12,29,16.40
2013,05,04,12,30,16.50
2013,05,04,12,31,16.50
2013,05,04,12,32,16.50
2013,05,04,12,33,16.50
2013,05,04,12,34,16.50
2013,05,04,12,35,16.60
2013,05,04,12,36,16.60
2013,05,04,12,37,16.60
2013,05,04,12,38,16.60
2013,05,04,12,39,16.60
2013,05,04,12,40,16.60
2013,05,04,12,41,16.60
2013,05,04,12,42,16.50
2013,05,04,12,43,16.50
2013,05,04,12,44,16.60
2013,05,04,12,45,16.70
2013,05,04,12,46,16.80
2013,05,04,12,47,16.80
2013,05,04,12,48,16.80
2013,05,04,12,49,16.80
2013,05,04,12,50,16.70
2013,05,04,12,51,16.70
2013,05,04,12,52,16.70
2013,05,04,12,53,16.70
2013,05,04,12,54,16.60
2013,05,04,12,55,16.60
2013,05,04,12,56,16.60
2013,05,04,12,57,16.60
2013,05,04,12,58,16.70
2013,05,04,12,59,16.70
2013,05,04,13,00,16.70
2013,05,04,13,01,16.70
2013,05,04,13,02,16.70
2013,05,04,13,03,16.70
2013,05,04,13,04,16.70
2013,05,04,13,05,16.60
2013,05,04,13,06,16.60
2013,05,04,13,07,16.50
2013,05,04,13,08,16.40
2013,05,04,13,09,16.30
2013,05,04,13,10,16.30
2013,05,04,13,11,16.30
2013,05,04,13,12,16.40
2013,05,04,13,13,16.40
2013,05,04,13,14,16.40
2013,05,04,13,15,16.50
2013,05,04,13,16,16.60
2013,05,04,13,17,16.70
2013,05,04,13,18,16.70
2013,05,04,13,19,16.80
2013,05,04,13,20,16.80
2013,05,04,13,21,16.90
2013,05,04,13,22,16.90
2013,05,04,13,23,16.90
2013,05,04,13,24,16.90
2013,05,04,13,25,16.90
2013,05,04,13,26,17.00
2013,05,04,13,27,17.10
2013,05,04,13,28,17.10
2013,05,04,13,29,17.10
2013,05,04,13,30,17.10
2013,05,04,13,31,17.20
2013,05,04,13,32,17.30
2013,05,04,13,33,17.40
2013,05,04,13,34,17.50
2013,05,04,13,35,17.60
2013,05,04,13,36,17.70
2013,05,04,13,37,17.70
2013,05,04,13,38,17.60
2013,05,04,13,39,17.70
2013,05,04,13,40,17.80
2013,05,04,13,41,17.80
2013,05,04,13,42,17.80
2013,05,04,13,43,17.80
2013,05,04,13,44,17.70
2013,05,04,13,45,17.60
2013,05,04,13,46,17.60
2013,05,04,13,47,17.70
2013,05,04,13,48,17.70
2013,05,04,13,49,17.70
2013,05,04,13,50,17.70
2013,05,04,13,51,17.70
2013,05,04,13,52,17.70
2013,05,04,13,53,17.70
2013,05,04,13,54,17.70
2013,05,04,13,55,17.70
2013,05,04,13,56,17.60
2013,05,04,13,57,17.60
2013,05,04,13,58,17.60
2013,05,04,13,59,17.70
2013,05,04,14,00,17.70
2013,05,04,14,01,17.80
2013,05,04,14,02,17.80
2013,05,04,14,03,17.80
2013,05,04,14,04,17.90
2013,05,04,14,05,17.80
2013,05,04,14,06,17.80
2013,05,04,14,07,17.80
2013,05,04,14,08,17.70
2013,05,04,14,09,17.80
2013,05,04,14,10,17.80
2013,05,04,14,11,17.90
2013,05,04,14,12,17.90
2013,05,04,14,13,18.00
2013,05,04,14,14,18.10
2013,05,04,14,15,18.10
2013,05,04,14,16,18.20
2013,05,04,14,17,18.20
2013,05,04,14,18,18.20
2013,05,04,14,19,18.30
2013,05,04,14,20,18.30
2013,05,04,14,21,18.30
2013,05,04,14,22,18.40
2013,05,04,14,23,18.40
2013,05,04,14,24,18.30
2013,05,04,14,25,18.30
2013,05,04,14,26,18.30
2013,05,04,14,27,18.30
2013,05,04,14,28,18.30
2013,05,04,14,29,18.20
2013,05,04,14,30,18.20
2013,05,04,14,31,18.20
2013,05,04,14,32,18.20
2013,05,04,14,33,18.20
2013,05,04,14,34,18.20
2013,05,04,14,35,18.30
2013,05,04,14,36,18.40
2013,05,04,14,37,18.40
2013,05,04,14,38,18.50
2013,05,04,14,39,18.50
2013,05,04,14,40,18.60
2013,05,04,14,41,18.70
2013,05,04,14,42,18.70
2013,05,04,14,43,18.80
2013,05,04,14,44,18.80
2013,05,04,14,45,18.90
2013,05,04,14,46,18.90
2013,05,04,14,47,19.00
2013,05,04,14,48,19.10
2013,05,04,14,49,19.10
2013,05,04,14,50,19.20
2013,05,04,14,51,19.20
2013,05,04,14,52,19.20
2013,05,04,14,53,19.20
2013,05,04,14,54,19.30
2013,05,04,14,55,19.40
2013,05,04,14,56,19.50
2013,05,04,14,57,19.70
2013,05,04,14,58,19.80
2013,05,04,14,59,19.90
2013,05,04,15,00,20.00
2013,05,04,15,01,20.00
2013,05,04,15,02,20.20
2013,05,04,15,03,20.40
2013,05,04,15,04,20.50
2013,05,04,15,05,20.60
2013,05,04,15,06,20.60
2013,05,04,15,07,20.60
2013,05,04,15,08,20.50
2013,05,04,15,09,20.30
2013,05,04,15,10,20.20
2013,05,04,15,11,20.10
2013,05,04,15,12,20.00
2013,05,04,15,13,20.00
2013,05,04,15,14,20.10
2013,05,04,15,15,20.20
2013,05,04,15,16,20.40
2013,05,04,15,17,20.40
2013,05,04,15,18,20.40
2013,05,04,15,19,20.20
2013,05,04,15,20,20.00
2013,05,04,15,21,19.80
2013,05,04,15,22,19.70
2013,05,04,15,23,19.80
2013,05,04,15,24,19.80
2013,05,04,15,25,19.80
2013,05,04,15,26,19.70
2013,05,04,15,27,19.60
2013,05,04,15,28,19.60
2013,05,04,15,29,19.60
2013,05,04,15,30,19.70
2013,05,04,15,31,19.70
2013,05,04,15,32,19.80
2013,05,04,15,33,19.80
2013,05,04,15,34,19.80
2013,05,04,15,35,19.90
2013,05,04,15,36,20.00
2013,05,04,15,37,20.10
2013,05,04,15,38,20.20
2013,05,04,15,39,20.20
2013,05,04,15,40,20.20
2013,05,04,15,41,20.20
2013,05,04,15,42,20.20
2013,05,04,15,43,20.10
2013,05,04,15,44,20.10
2013,05,04,15,45,20.00
2013,05,04,15,46,20.00
2013,05,04,15,47,19.90
2013,05,04,15,48,19.90
2013,05,04,15,49,19.90
2013,05,04,15,50,19.90
2013,05,04,15,51,19.80
2013,05,04,15,52,19.80
2013,05,04,15,53,19.90
2013,05,04,15,54,19.90
2013,05,04,15,55,20.00
2013,05,04,15,56,20.10
2013,05,04,15,57,20.30
2013,05,04,15,58,20.30
2013,05,04,15,59,20.40
2013,05,04,16,00,20.40
2013,05,04,16,01,20.40
2013,05,04,16,02,20.50
2013,05,04,16,03,20.40
2013,05,04,16,04,20.50
2013,05,04,16,05,20.50
2013,05,04,16,06,20.60
2013,05,04,16,07,20.60
2013,05,04,16,08,20.70
2013,05,04,16,09,20.80
2013,05,04,16,10,20.80
2013,05,04,16,11,20.90
2013,05,04,16,12,21.00
2013,05,04,16,13,21.10
2013,05,04,16,14,21.10
2013,05,04,16,15,21.20
2013,05,04,16,16,21.30
2013,05,04,16,17,21.50
2013,05,04,16,18,21.60
2013,05,04,16,19,21.70
2013,05,04,16,20,21.70
2013,05,04,16,21,21.70
2013,05,04,16,22,21.70
2013,05,04,16,23,21.80
2013,05,04,16,24,21.90
2013,05,04,16,25,22.00
2013,05,04,16,26,22.10
2013,05,04,16,27,22.20
2013,05,04,16,28,22.30
2013,05,04,16,29,22.40
2013,05,04,16,30,22.50
2013,05,04,16,31,22.60
2013,05,04,16,32,22.70
2013,05,04,16,33,22.60
2013,05,04,16,34,22.60
2013,05,04,16,35,22.60
2013,05,04,16,36,22.60
2013,05,04,16,37,22.60
2013,05,04,16,38,22.60
2013,05,04,16,39,22.60
2013,05,04,16,40,22.60
2013,05,04,16,41,22.50
2013,05,04,16,42,22.50
2013,05,04,16,43,22.50
2013,05,04,16,44,22.40
2013,05,04,16,45,22.40
2013,05,04,16,46,22.30
2013,05,04,16,47,22.30
2013,05,04,16,48,22.30
2013,05,04,16,49,22.30
2013,05,04,16,50,22.20
2013,05,04,16,51,22.20
2013,05,04,16,52,22.20
2013,05,04,16,53,22.10
2013,05,04,16,54,22.10
2013,05,04,16,55,22.00
2013,05,04,16,56,22.00
2013,05,04,16,57,22.00
2013,05,04,16,58,22.00
2013,05,04,16,59,22.00
2013,05,04,17,00,22.00
2013,05,04,17,01,21.90
2013,05,04,17,02,21.90
2013,05,04,17,03,21.90
2013,05,04,17,04,21.90
2013,05,04,17,05,22.00
2013,05,04,17,06,22.00
2013,05,04,17,07,22.00
2013,05,04,17,08,22.00
2013,05,04,17,09,21.90
2013,05,04,17,10,21.90
2013,05,04,17,11,21.90
2013,05,04,17,12,21.90
2013,05,04,17,13,21.90
2013,05,04,17,14,21.90
2013,05,04,17,15,21.90
2013,05,04,17,16,21.90
2013,05,04,17,17,21.90
2013,05,04,17,18,21.90
2013,05,04,17,19,21.90
2013,05,04,17,20,21.90
2013,05,04,17,21,22.00
2013,05,04,17,22,22.00
2013,05,04,17,23,22.00
2013,05,04,17,24,21.90
2013,05,04,17,25,21.90
2013,05,04,17,26,21.90
2013,05,04,17,27,21.90
2013,05,04,17,28,21.90
2013,05,04,17,29,22.00